Toledo Metcalf, OH

6:47 AM EDT on July 25, 2017 (GMT -0400)
Metcalf

Weather History for KTDZ - July, 2013

Change the Weather History Date:

Friday, July 19, 2013

  Actual Average (KTOL) Record (KTOL)
Temperature  
Mean Temperature 84 °F -  
Max Temperature 93 °F 84 °F 102 °F (1930)
Min Temperature 75 °F 63 °F 50 °F (1979)
Cooling Degree Days 19    
Growing Degree Days 34 (Base 50)    
Moisture  
Dew Point 72 °F    
Average Humidity 66    
Maximum Humidity 87    
Minimum Humidity 47    
Precipitation  
Precipitation 0.00 in - - ()
Sea Level Pressure  
Sea Level Pressure 29.88 in    
Wind  
Wind Speed 11 mph (SW)    
Max Wind Speed 21 mph    
Max Gust Speed 31 mph    
Visibility 10 miles    
Events      
Averages and records for this station are not official NWS values.
T = Trace of Precipitation, MM = Missing Value Source: NWS Daily Summary

Daily Weather History Graph

Daily Weather History Graph

Search for Another Location

Airport or City:

Trip Planner

Search our weather history database for the weather conditions in past years. The results will help you decide how hot, cold, wet, or windy it might be!

Date:

Astronomy

Jul. 19, 2013 Rise Set
Actual Time 6:16 AM EDT 9:03 PM EDT
Civil Twilight 5:43 AM EDT 9:35 PM EDT
Nautical Twilight 5:02 AM EDT 10:16 PM EDT
Astronomical Twilight 4:15 AM EDT 11:03 PM EDT
Moon 6:04 PM EDT (7/19) 2:56 AM EDT (7/19)
Length of Visible Light 15h 51m
Length of Day
14h 46m
Waxing Gibbous, 86% of the Moon is Illuminated
Jul 19
Waxing Gibbous
Jul 22
Full
Jul 29
Last Quarter
Aug 6
New
Aug 14
First Quarter

Hourly Weather History & Observations

Time (EDT) Temp. Heat Index Dew Point Humidity Pressure Visibility Wind Dir Wind Speed Gust Speed Precip Events Conditions
12:53 AM 80.1 °F 84.2 °F 73.0 °F 79% 29.99 in 10.0 mi WSW 5.8 mph - N/A   Clear
1:53 AM 79.0 °F - 73.0 °F 82% 29.98 in 10.0 mi WSW 6.9 mph - N/A   Clear
2:53 AM 78.1 °F - 72.0 °F 81% 29.97 in 9.0 mi SW 5.8 mph - N/A   Clear
3:53 AM 77.0 °F - 72.0 °F 84% 29.95 in 9.0 mi SSW 5.8 mph - N/A   Clear
4:53 AM 75.9 °F - 72.0 °F 87% 29.94 in 9.0 mi SSW 6.9 mph - N/A   Clear
5:53 AM 75.9 °F - 72.0 °F 87% 29.94 in 8.0 mi SSW 6.9 mph - N/A   Clear
6:53 AM 75.9 °F - 72.0 °F 87% 29.94 in 6.0 mi SSW 6.9 mph - N/A   Clear
7:53 AM 79.0 °F - 72.0 °F 79% 29.95 in 9.0 mi SW 11.5 mph - N/A   Clear
8:53 AM 82.0 °F 87.4 °F 73.0 °F 74% 29.94 in 10.0 mi WSW 13.8 mph - N/A   Clear
9:53 AM 84.9 °F 91.4 °F 73.0 °F 67% 29.94 in 10.0 mi WSW 15.0 mph - N/A   Clear
10:53 AM 88.0 °F 96.5 °F 73.9 °F 63% 29.94 in 10.0 mi WSW 20.7 mph 27.6 mph N/A   Clear
11:53 AM 90.0 °F 97.9 °F 73.0 °F 57% 29.92 in 10.0 mi WSW 18.4 mph 26.5 mph N/A   Partly Cloudy
12:53 PM 91.0 °F 99.3 °F 73.0 °F 55% 29.90 in 10.0 mi SW 18.4 mph 25.3 mph N/A   Scattered Clouds
1:53 PM 93.0 °F 100.7 °F 72.0 °F 50% 29.87 in 10.0 mi WSW 20.7 mph 29.9 mph N/A   Partly Cloudy
2:53 PM 93.9 °F 100.8 °F 71.1 °F 47% 29.84 in 10.0 mi SW 20.7 mph 27.6 mph N/A   Clear
3:53 PM 93.9 °F 100.8 °F 71.1 °F 47% 29.82 in 10.0 mi WSW 20.7 mph 31.1 mph N/A   Scattered Clouds
4:53 PM 93.9 °F 100.8 °F 71.1 °F 47% 29.80 in 10.0 mi WSW 20.7 mph 28.8 mph N/A   Partly Cloudy
5:53 PM 93.0 °F 100.1 °F 71.1 °F 49% 29.79 in 10.0 mi SW 18.4 mph 27.6 mph N/A   Partly Cloudy
6:53 PM 91.9 °F 98.4 °F 71.1 °F 50% 29.79 in 10.0 mi SW 16.1 mph 25.3 mph N/A   Clear
7:53 PM 90.0 °F 96.4 °F 71.1 °F 54% 29.79 in 10.0 mi SW 12.7 mph - N/A   Clear
8:53 PM 87.1 °F 93.6 °F 72.0 °F 61% 29.78 in 10.0 mi SSW 11.5 mph - N/A   Clear
9:53 PM 86.0 °F 92.2 °F 72.0 °F 63% 29.78 in 10.0 mi SW 15.0 mph - N/A   Clear
10:53 PM 79.0 °F - 68.0 °F 69% 29.78 in 10.0 mi SSW 11.5 mph - N/A   Clear
11:53 PM 82.0 °F 86.7 °F 72.0 °F 71% 29.80 in 8.0 mi SSW 12.7 mph - N/A   Overcast